Theta_e
316 324 328 330 328 329 329 329 331 337 336 333 332 332 333 333 333 335 336 335 336 335 335 335 333 331 329 328 327 328 327 328 331 330 331 331 329 328 325 326 327 325 325
308 314 323 328 329 331 332 335 333 336 336 335 334 335 333 334 335 337 336 336 335 335 334 333 332 331 328 329 329 329 330 330 330 327 327 322 323 323 321 323 321 321 322
305 306 312 321 327 328 331 332 334 334 332 334 332 331 333 332 332 334 332 332 334 334 335 332 332 331 330 329 332 331 330 327 328 329 326 318 316 319 321 319 319 319 319
305 305 308 311 318 326 330 331 332 333 334 334 332 326 327 327 331 332 333 334 333 333 334 334 333 333 333 330 331 330 330 328 322 327 327 328 323 320 317 318 316 316 315
305 306 306 308 312 315 325 330 330 332 333 334 332 331 328 331 332 331 331 330 332 333 333 334 333 332 331 330 328 326 325 327 325 325 323 325 325 324 320 316 314 313 313
304 305 307 307 308 311 313 323 328 329 331 331 331 330 329 329 327 328 327 328 328 328 329 330 330 329 327 327 326 325 322 322 322 322 323 322 320 319 319 315 315 314 311
304 304 305 305 307 308 309 317 324 326 328 328 329 330 329 327 327 325 326 324 323 321 323 324 325 325 326 326 325 323 318 317 318 317 317 318 319 320 317 315 314 312 310
300 301 303 305 306 307 307 311 319 323 326 327 328 330 330 329 328 325 324 324 322 321 321 321 320 317 319 318 317 315 314 315 316 315 315 316 316 317 317 314 313 310 310
298 298 298 302 305 306 307 307 311 316 321 324 325 325 325 325 325 323 322 322 321 318 316 315 313 312 311 309 308 307 307 309 311 311 312 312 312 313 314 315 313 309 304
298 300 299 299 302 304 305 306 308 313 317 319 322 320 319 319 319 318 318 317 315 313 311 309 308 307 305 304 305 303 304 305 308 310 310 310 310 310 311 312 312 311 307
296 299 299 299 301 303 304 306 308 310 311 312 312 312 311 312 312 313 313 312 310 309 308 306 304 302 301 301 302 302 303 303 304 305 306 306 307 308 308 309 309 309 308
296 297 299 300 301 302 303 305 307 308 308 308 307 307 307 307 307 307 307 307 305 303 302 301 300 300 300 300 300 300 300 300 300 300 301 301 302 304 304 305 305 304 304
296 296 297 298 300 301 302 303 304 305 305 305 304 304 304 304 303 302 302 302 301 300 300 300 299 299 298 298 298 298 298 298 298 298 299 299 300 301 301 301 301 301 301
297 297 297 297 298 300 302 302 303 304 303 302 302 301 301 301 300 299 299 299 299 299 298 298 298 297 297 297 297 296 295 296 297 297 297 298 298 298 299 298 298 297 297
295 295 297 297 297 298 299 301 301 302 302 301 301 300 299 299 298 298 298 298 298 297 297 296 295 295 295 295 295 295 295 295 295 295 295 296 297 297 298 298 297 296 295
296 296 295 296 297 298 299 300 300 301 301 300 300 299 298 298 298 297 297 296 295 295 295 295 294 295 295 298 298 296 295 295 294 294 294 295 294 294 297 297 297 296 294
296 296 296 295 295 297 299 299 300 300 300 300 299 298 298 297 297 296 295 294 293 293 293 293 294 293 295 298 298 297 295 294 294 293 293 292 292 291 291 292 292 291 292
295 295 294 295 297 297 297 298 299 299 299 298 298 298 297 296 295 294 293 292 292 292 292 291 291 292 293 297 298 294 290 293 293 292 292 291 290 289 288 288 287 287 288
295 295 296 296 296 296 296 296 297 298 298 298 298 298 297 295 294 293 291 290 288 287 288 290 290 291 292 296 297 293 291 291 290 290 290 289 288 288 290 286 285 285 286
295 294 295 296 295 296 296 295 295 296 297 298 298 297 297 295 294 292 290 290 290 288 290 289 290 291 291 294 296 295 291 290 289 287 286 289 290 289 290 287 285 283 285
294 295 294 293 294 294 295 294 295 294 297 297 297 296 296 294 293 290 290 289 290 289 290 290 290 290 291 291 295 295 290 289 287 286 285 285 288 291 290 290 286 285 286
294 294 293 292 292 293 293 294 294 295 296 296 295 295 294 293 291 290 290 290 290 289 289 289 289 289 290 292 293 294 294 291 287 285 285 284 286 289 291 290 289 288 287
292 292 291 291 291 291 292 293 294 294 294 295 294 294 293 292 291 290 289 289 289 289 288 289 289 288 288 289 292 294 294 295 285 284 285 286 287 288 289 291 290 289 286
291 291 291 290 290 290 291 291 293 294 294 294 293 292 291 290 291 290 289 289 289 289 289 288 288 289 287 288 289 290 291 294 292 290 289 287 287 287 287 288 288 286 285
292 291 290 290 289 290 290 291 293 294 293 292 292 292 292 290 289 290 289 290 291 291 290 289 289 287 287 288 290 289 287 287 288 286 284 283 283 283 284 285 285 285 285
291 291 290 290 289 289 290 292 293 294 293 292 291 291 291 290 290 289 288 292 292 293 294 292 290 288 291 291 291 292 292 291 290 285 283 283 283 282 282 283 284 284 284
Wind_Speed
1 5 5 11 9 3 1 5 6 7 7 4 4 3 5 5 7 8 12 11 11 12 11 8 8 7 8 8 8 5 5 4 1 1 1 1 1 2 2 3 1 4 4
3 3 6 8 11 10 9 8 14 11 9 8 4 2 3 3 5 6 8 10 12 10 11 10 8 8 6 8 8 6 3 2 3 2 1 2 3 2 1 2 3 4 4
7 7 7 9 11 13 12 10 12 10 5 5 3 2 2 1 2 2 4 6 10 11 10 10 7 7 6 6 8 7 4 2 0 5 0 2 4 1 2 2 1 4 3
4 5 7 7 10 12 10 13 13 12 9 15 11 9 8 8 4 3 3 9 9 9 10 8 8 7 4 3 3 3 4 4 2 3 2 5 3 3 2 2 2 1 3
8 8 7 9 9 6 8 8 8 15 19 15 13 15 19 14 14 9 12 9 5 6 6 7 8 7 4 5 8 8 3 1 1 4 2 3 2 3 4 4 2 2 3
8 8 6 4 5 4 5 6 9 9 12 12 14 14 17 11 8 8 6 4 3 3 5 6 6 6 6 7 7 8 9 5 3 3 2 3 2 2 2 3 3 3 2
9 7 8 6 5 9 7 6 8 9 10 11 11 10 7 7 7 6 5 5 3 2 5 6 7 7 6 8 6 6 5 4 4 4 3 3 2 2 3 4 5 4 2
6 5 8 8 8 7 8 9 9 9 9 8 8 7 8 5 4 5 4 5 5 6 7 6 6 6 7 6 5 4 4 5 3 3 2 2 2 3 3 4 4 4 4
3 7 8 8 8 7 8 8 7 5 6 6 6 5 5 5 6 6 5 6 7 6 8 8 8 7 7 6 6 4 4 3 3 3 2 1 1 1 1 2 3 3 4
4 1 3 6 4 4 2 5 7 8 7 8 6 5 5 4 3 5 6 6 6 8 9 10 10 9 7 6 6 5 5 4 2 2 2 2 1 0 1 2 3 3 5
3 3 3 2 3 3 3 3 6 8 8 8 6 6 5 5 5 5 5 7 8 9 9 9 8 8 7 6 6 6 5 5 4 2 2 1 1 1 1 1 2 2 2
4 3 5 6 5 4 4 5 5 6 6 6 6 6 6 6 6 6 6 8 8 7 7 8 9 8 7 6 6 5 4 4 4 3 1 1 0 1 1 0 1 2 2
4 4 5 6 6 6 5 5 4 5 5 6 7 6 6 6 7 7 7 8 9 9 9 9 9 7 6 6 5 5 5 4 3 3 1 0 1 2 1 2 2 1 1
3 3 5 5 5 4 3 4 5 5 6 7 7 6 7 8 8 8 9 9 9 10 8 8 8 8 7 7 6 5 4 4 4 3 2 2 2 1 2 3 4 2 2
7 5 4 4 4 4 3 2 2 4 5 6 7 7 7 9 9 9 9 9 9 8 8 9 8 7 6 5 6 5 4 4 4 2 1 1 1 2 2 2 3 3 2
7 5 3 3 4 1 3 4 4 4 4 6 6 7 8 9 9 9 9 8 8 8 8 8 8 7 4 9 9 7 5 4 3 1 1 1 2 3 3 3 3 3 3
6 6 5 2 2 3 3 3 4 5 6 6 7 9 8 8 9 9 10 9 9 8 8 6 7 6 4 8 7 9 5 4 3 2 1 1 1 2 2 4 5 5 5
4 3 3 2 1 1 2 1 2 4 5 6 8 8 9 9 9 8 8 8 7 8 7 6 5 5 4 6 9 9 5 3 3 2 2 2 2 1 1 1 1 2 3
3 3 3 2 3 3 2 3 3 5 6 8 9 9 9 9 9 8 8 5 5 4 4 4 6 6 4 6 9 6 4 2 3 3 2 2 1 2 2 1 0 1 2
3 4 4 4 5 4 3 3 4 5 8 8 8 9 10 10 10 9 9 5 5 6 5 6 5 5 4 4 6 5 2 3 2 3 2 2 3 4 4 3 1 2 1
4 3 3 3 4 5 4 5 4 8 5 5 7 8 8 9 8 9 6 7 6 6 6 6 5 5 4 4 7 7 4 2 2 2 1 1 4 4 5 7 4 3 3
5 5 4 5 5 5 4 4 5 5 5 6 8 8 8 7 8 11 7 7 7 7 6 5 4 4 4 6 7 7 7 6 3 3 2 2 5 6 6 4 6 6 5
4 4 4 5 5 7 5 4 4 3 4 6 8 8 8 7 9 10 9 6 6 6 6 5 4 2 3 3 6 8 7 9 4 3 5 7 6 6 5 7 7 6 4
4 3 4 5 5 5 5 3 2 1 4 6 7 8 8 8 7 6 6 6 7 6 5 4 4 3 2 3 3 3 3 7 5 8 5 5 5 5 5 4 3 3 4
3 2 3 3 4 4 6 5 4 4 5 5 6 6 5 6 7 5 5 5 5 6 6 4 4 4 4 4 6 6 4 3 5 4 2 2 2 3 4 3 3 3 3
2 3 4 4 5 5 7 8 5 4 5 6 4 4 4 4 4 5 3 6 5 10 7 6 5 3 6 5 6 7 8 9 10 3 4 4 5 5 5 5 5 5 6
Wind_Direction
168 127 192 181 171 220 70 133 134 126 130 134 163 175 202 208 216 210 213 206 208 206 211 218 209 199 208 203 200 204 212 221 214 251 232 213 334 182 180 133 99 86 69
153 155 186 201 184 189 191 183 169 176 175 155 139 145 167 207 228 229 222 211 212 203 208 211 211 197 193 208 198 186 169 197 185 194 121 261 210 205 236 104 109 107 110
158 165 189 213 189 193 200 195 189 175 169 187 138 138 325 155 216 232 266 249 234 214 199 195 196 198 199 194 192 184 165 209 211 282 114 233 246 238 150 48 82 146 148
227 171 192 197 199 206 195 197 203 176 192 222 193 186 230 233 264 239 301 243 215 223 211 185 186 187 181 174 124 165 153 127 174 247 227 251 237 244 266 181 167 197 175
217 225 200 195 209 175 193 198 187 189 206 209 203 186 204 211 214 213 214 209 193 197 193 178 169 162 160 171 158 143 109 314 218 212 207 233 262 270 261 289 195 213 198
216 237 228 215 172 182 192 190 172 183 194 194 202 196 202 188 180 191 198 202 185 172 150 143 146 159 162 167 162 148 152 190 245 226 166 238 223 196 212 231 251 249 198
227 220 234 219 201 179 190 191 190 190 187 187 189 196 193 192 186 171 182 171 173 160 153 144 151 163 170 163 160 158 146 150 199 208 181 192 235 234 244 253 267 249 179
235 239 239 238 221 207 179 180 189 188 179 188 198 183 177 178 167 178 168 184 171 165 159 152 140 129 135 128 128 127 122 138 173 190 178 154 200 208 238 250 260 264 220
230 240 244 232 233 215 195 189 176 169 170 171 157 165 170 178 183 174 164 174 166 162 149 136 130 127 128 125 131 122 114 136 129 160 142 179 200 176 209 234 240 244 276
102 85 234 229 225 223 187 175 168 165 167 171 176 171 164 169 175 157 169 163 142 136 136 137 136 132 121 117 117 113 113 132 129 123 154 159 190 223 233 249 244 235 254
57 70 95 78 139 116 150 176 173 162 161 161 151 147 144 139 143 144 139 136 136 139 138 139 135 128 124 123 123 124 137 133 124 115 156 127 291 245 222 222 247 244 240
77 41 79 104 105 121 139 171 169 149 153 135 134 136 131 129 128 130 139 134 124 113 116 122 122 129 130 131 126 128 118 118 110 88 57 80 113 281 308 29 240 272 276
66 60 51 74 93 111 126 132 126 126 130 131 135 139 132 130 131 128 131 127 124 124 130 133 134 133 123 115 105 110 99 86 84 65 45 190 185 205 219 232 237 236 296
58 57 69 65 71 70 99 127 136 144 143 139 140 139 145 138 137 135 132 130 133 130 132 126 128 127 127 122 112 99 107 115 112 120 174 181 179 238 265 245 259 225 237
29 22 23 27 69 90 98 108 136 152 149 147 148 152 147 139 139 137 138 133 127 129 131 129 125 125 126 128 123 131 135 113 100 119 100 48 9 303 260 267 277 259 237
350 360 32 11 340 2 159 156 162 178 156 153 156 154 151 151 150 141 136 130 126 129 132 128 130 132 125 142 144 138 119 101 104 139 129 59 46 14 20 33 297 237 244
279 303 329 5 6 299 260 215 179 157 171 167 165 167 156 156 156 151 144 143 142 139 135 133 136 135 149 150 143 134 125 119 121 156 170 172 90 63 75 48 48 40 21
286 314 348 347 21 94 337 290 179 193 179 176 166 167 164 159 155 152 147 142 143 145 143 139 140 143 177 158 143 122 117 109 130 153 189 190 152 118 101 60 56 33 22
37 31 2 321 317 317 297 255 212 195 190 194 185 173 162 156 160 160 152 141 133 127 134 138 153 172 176 177 152 128 121 136 139 134 148 154 184 208 199 125 30 19 19
24 7 341 323 334 341 323 254 233 207 217 200 182 166 165 164 170 161 157 152 144 143 132 135 176 186 178 190 179 160 165 182 166 153 163 225 227 243 236 183 205 247 256
353 359 3 349 326 321 310 278 259 235 222 167 162 164 165 159 154 139 142 138 141 135 151 159 182 187 191 201 204 197 181 190 175 191 201 225 260 255 242 180 189 220 154
2 3 354 354 337 324 309 276 247 237 198 171 157 153 152 148 143 145 138 146 152 155 163 172 172 199 203 216 215 214 206 186 182 208 205 241 256 252 243 189 202 198 158
345 356 3 352 355 350 341 311 299 201 164 152 147 146 140 138 143 148 151 155 165 169 171 179 190 197 203 225 234 227 224 213 190 190 210 210 227 242 251 219 210 196 168
3 352 21 25 6 356 359 355 353 152 145 141 140 141 141 139 146 152 161 162 172 175 178 187 197 207 219 229 217 221 233 240 210 209 210 201 205 208 215 232 229 174 188
6 34 48 47 18 8 15 3 26 106 106 107 120 130 139 148 154 159 168 173 180 176 182 192 184 190 224 236 221 201 202 195 207 141 135 170 195 208 210 208 214 203 199
36 28 36 47 26 23 23 9 13 80 112 108 110 139 135 138 145 149 134 190 183 194 194 181 181 206 218 212 227 221 214 213 208 157 187 208 215 222 221 219 218 214 221